EHI
0 0 0 0 0 0 0 0 0 0 0 0 0 0 0 0 0 0 0 0 0 0 0 0 0 0 0 0 0 0 0 0 0 0 0 0 0 0
0 0 0 0 0 0 0 0 0 0 0 0 0 0 0 0 0 0 0 0 0 0 0 0 0 0 0 0 0 0 0 0 0 0 0 0 0 0
0 0 0 0 0 0 0 0 0 0 0 0 0 0 0 0 0 0 0 0 0 0 0 0 0 0 0 0 0 0 0 0 0 0 0 0 0 0
0 0 0 0 0 0 0 0 0 0 0 0 0 0 0 0 0 0 0 0 0 0 0 0 0 0 0 0 0 0 0 0 0 0 0 0 0 0
0 0 0 0 0 0 0 0 0 0 0 0 0 0 0 0 0 0 0 0 0 0 0 0 0 0 0 0 0 0 0 0 0 0 0 0 0 0
0 0 0 0 0 0 0 0 0 0 0 0 0 0 0 0 0 0 0 0 0 0 0 0 0 0 0 0 0 0 0 0 0 0 0 0 0 0
0 0 0 0 0 0 0 0 0 0 0 0 0 0 0 0 0 0 0 0 0 0 0 0 0 0 0 0 0 0 0 0 0 0 0 0 0 0
0 0 0 0 0 0 0 0 0 0 0 0 0 0 0 0 0 0 0 0 0 0 0 0 0 0 0 0 0 0 0 0 0 0 0 0 0 0
0 0 0 0 0 0 0 0 0 0 0 0 0 0 0 0 0 0 0 0 0 0 0 0 0 0 0 0 0 0 0 0 0 0 0 0 0 0
0 0 0 0 0 0 0 0 0 0 0 0 0 0 0 0 0 0 0 0 0 0 0 0 0 0 0 0 0 0 0 0 0 0 0 0 0 0
0 0 0 0 0 0 0 0 0 0 0 0 0 0 0 0 0 0 0 0 0 0 0 0 0 0 0 0 0 0 0 0 0 0 0 0 0 0
0 0 0 0 0 0 0 0 0 0 0 0 0 0 0 0 0 0 0 0 0 0 0 0 0 0 0 0 0 0 0 0 0 0 0 0 0 0
0 0 0 0 0 0 0 0 0 0 0 0 0 0 0 0 0 0 0 0 0 0 0 0 0 0 0 0 0 0 0 0 0 0 0 0 0 0
0 0 0 0 0 0 0 0 0 0 0 0 0 0 0 0 0 0 0 0 0 0 0 0 0 0 0 0 0 0 0 0 0 0 0 0 0 0
0 0 0 0 0 0 0 0 0 0 0 0 0 0 0 0 0 0 0 0 0 0 0 0 0 0 0 0 0 0 0 0 0 0 0 0 0 0
0 0 0 0 0 0 0 0 0 0 0 0 0 0 0 0 0 0 0 0 0 0 0 0 0 0 0 0 0 0 0 0 0 0 0 0 0 0
0 0 0 0 0 0 0 0 0 0 0 0 0 0 0 0 0 0 0 0 0 0 0 0 0 0 0 0 0 0 0 0 0 0 0 0 0 0
0 0 0 0 0 0 0 0 0 0 0 0 0 0 0 0 0 0 0 0 0 0 0 0 0 0 0 0 0 0 0 0 0 0 0 0 0 0
0 0 0 0 0 0 0 0 0 0 0 0 0 0 0 0 0 0 0 0 0 0 0 0 0 0 0 0 0 0 0 0 0 0 0 0 0 0
0 0 0 0 0 0 0 0 0 0 0 0 0 0 0 0 0 0 0 0 0 0 0 0 0 0 0 0 0 0 0 0 0 0 0 0 0 0
0 0 0 0 0 0 0 0 0 0 0 0 0 0 0 0 0 0 0 0 0 0 0 0 0 0 0 0 0 0 0 0 0 0 0 0 0 0
0 0 0 0 0 0 0 0 0 0 0 0 0 0 0 0 0 0 0 0 0 0 0 0 0 0 0 0 0 0 0 0 0 0 0 0 0 0
0 0 0 0 0 0 0 0 0 0 0 0 0 0 0 0 0 0 0 0 0 0 0 0 0 0 0 0 0 0 0 0 0 0 0 0 0 0
Wind_Speed
3 3 2 1 1 1 1 2 2 2 3 2 1 1 2 3 4 4 5 6 8 8 9 9 10 10 9 8 9 9 9 9 10 10 10 10 10 11
3 3 2 2 2 1 2 2 2 3 3 2 2 3 4 3 5 5 5 7 7 8 9 9 10 10 10 9 9 8 9 9 10 10 11 11 11 11
3 4 3 3 2 2 2 2 2 3 4 3 3 3 5 5 4 5 5 5 5 7 9 9 9 10 10 10 9 8 9 9 9 10 11 11 12 12
5 4 4 3 3 3 3 3 3 3 4 4 3 3 5 5 5 5 5 5 5 7 9 10 10 10 10 10 10 9 9 9 10 10 11 11 12 13
5 6 5 5 5 3 4 3 3 2 3 4 4 3 4 4 5 5 5 5 5 6 8 9 9 10 10 10 10 10 10 10 10 11 11 12 13 13
6 6 6 6 6 5 4 4 3 3 3 4 4 4 4 4 4 4 4 4 5 5 6 7 8 9 10 10 10 10 10 11 11 11 12 12 13 13
5 5 5 6 6 5 4 4 4 3 3 4 4 4 4 4 4 4 5 5 6 4 5 5 6 5 6 8 9 10 10 11 12 12 13 13 13 14
5 5 4 5 6 7 8 7 7 6 5 5 5 5 6 5 4 4 5 6 5 3 6 6 6 6 6 6 8 10 11 12 13 13 14 14 14 14
5 5 4 4 5 5 6 6 7 8 9 7 7 7 7 5 5 6 6 7 7 6 6 7 6 7 6 7 11 12 12 13 13 14 14 14 14 15
6 6 6 5 5 5 5 5 6 6 6 6 7 7 7 6 6 7 7 8 8 6 6 8 7 7 7 7 10 12 13 13 14 14 13 14 15 15
5 6 6 6 7 7 6 6 5 5 5 7 8 8 9 10 8 6 6 6 7 6 5 6 6 7 7 7 7 10 12 13 13 13 14 14 15 15
4 5 7 7 8 8 6 6 6 5 4 4 5 7 7 7 9 8 6 6 6 6 4 5 5 6 6 5 5 6 7 10 12 13 14 14 15 10
4 4 4 7 8 8 7 6 6 5 5 5 5 5 5 4 5 5 6 6 7 7 5 5 6 6 7 7 7 6 7 7 7 9 11 14 14 12
4 3 4 6 7 7 6 6 7 6 4 4 4 4 4 4 4 5 6 6 7 8 7 7 7 7 8 9 8 7 7 7 7 8 8 11 12 13
3 5 5 6 6 5 5 6 5 4 4 4 5 5 4 5 5 4 5 6 7 8 7 8 8 8 8 9 9 8 8 7 7 8 8 8 8 8
3 4 5 6 5 5 5 4 4 4 4 4 5 4 4 4 5 5 5 5 6 6 6 8 8 9 9 10 9 9 9 8 7 7 8 8 8 8
3 3 3 3 3 3 3 3 3 4 4 4 4 4 5 5 5 5 5 5 6 7 6 5 6 7 9 9 9 9 9 9 8 8 9 9 9 8
4 3 3 3 4 4 3 4 4 4 4 4 5 5 5 5 5 5 5 6 7 7 6 6 6 6 7 7 9 10 9 8 8 8 9 10 10 8
3 3 4 4 4 4 4 4 4 4 4 4 5 5 5 5 6 6 6 6 7 7 7 6 6 7 8 9 7 7 8 8 8 8 8 9 11 10
3 3 4 4 4 4 4 4 4 4 4 4 5 5 6 6 6 7 6 7 7 7 7 7 6 7 8 9 9 8 9 9 8 9 9 9 10 12
3 3 4 4 4 4 4 4 5 5 5 5 5 6 6 6 7 7 7 9 9 8 8 8 6 8 8 8 9 9 8 10 11 10 10 10 10 10
3 4 4 4 4 4 4 4 4 5 5 5 5 6 6 6 7 8 7 8 7 8 9 7 7 7 7 9 10 11 10 9 10 14 15 14 10 9
4 4 4 4 4 4 4 5 6 5 5 5 6 6 6 6 7 7 7 8 8 8 8 8 7 7 7 8 10 10 12 11 9 9 9 12 17 20
Wind_Direction
186 191 198 203 214 223 211 217 223 243 251 244 240 258 307 309 326 310 309 321 320 320 321 322 322 318 315 308 306 309 311 310 310 308 305 301 299 297
190 191 197 207 205 218 220 234 241 243 250 261 274 294 296 297 306 301 306 314 306 309 311 312 310 311 308 303 303 304 305 306 306 305 306 302 298 296
196 199 208 208 203 209 215 221 232 242 247 269 278 282 280 286 293 296 299 299 298 301 304 306 306 305 304 302 296 299 301 302 303 302 302 302 299 296
203 205 211 209 212 211 214 225 233 245 252 263 274 279 281 284 288 291 294 296 295 302 301 300 297 297 297 298 294 294 296 298 298 298 298 298 298 297
209 212 213 213 216 218 223 227 233 244 252 258 272 276 279 282 285 283 285 289 293 296 298 294 292 295 295 295 294 291 289 292 294 295 294 294 294 295
214 218 218 218 221 220 225 227 231 238 248 254 265 274 277 280 278 285 290 290 293 291 291 294 295 292 291 292 290 291 289 288 289 289 290 291 290 290
219 221 222 224 232 231 229 228 230 235 244 253 260 269 270 274 278 291 291 299 295 291 295 293 293 289 288 286 281 283 287 288 288 287 288 289 288 287
222 224 224 221 224 231 237 237 236 236 241 250 257 257 265 274 282 283 288 294 293 305 306 298 294 288 288 285 288 287 286 287 288 288 287 288 288 287
223 224 226 225 225 230 233 234 240 245 246 250 255 257 265 268 276 278 278 284 286 298 298 289 288 285 287 282 287 285 284 284 286 288 286 286 288 288
226 224 225 226 226 231 236 241 247 247 249 251 254 262 267 267 266 272 277 282 283 278 277 280 286 287 289 282 282 283 282 283 284 285 288 289 289 289
229 229 227 228 223 228 236 242 250 258 258 255 262 266 269 268 266 267 268 273 282 282 274 274 286 293 286 280 280 281 281 282 283 285 288 291 294 291
227 229 227 226 225 229 235 236 243 250 256 260 261 262 261 258 257 255 258 264 277 281 273 280 290 300 291 280 288 292 288 285 284 284 287 289 290 288
226 229 227 222 230 237 242 243 246 260 262 261 264 264 263 261 260 259 258 258 263 267 274 284 286 289 283 290 292 289 287 288 288 285 284 287 287 284
228 231 228 230 238 243 246 242 252 264 259 258 259 263 266 268 269 269 270 268 266 269 272 273 274 278 282 285 286 290 287 287 287 287 289 291 286 282
234 228 232 236 246 249 243 249 255 252 248 251 257 264 270 272 274 273 272 270 269 268 267 268 268 270 270 274 281 286 289 286 284 285 287 288 289 288
228 221 228 235 243 245 247 248 248 247 250 255 260 265 269 269 267 267 268 270 272 272 268 266 266 266 266 270 274 279 282 282 284 287 288 286 284 281
225 225 221 222 227 231 237 242 244 243 248 250 256 261 262 264 265 266 266 268 267 272 276 273 268 267 265 268 271 272 276 278 280 284 284 283 281 280
232 224 226 230 235 240 244 247 247 248 250 252 254 256 260 264 267 266 264 264 266 268 271 276 277 276 270 260 251 267 273 277 281 281 280 280 281 282
234 232 236 238 241 245 247 250 254 255 255 254 255 257 260 262 264 264 265 266 267 267 268 269 267 268 272 276 267 245 268 279 280 278 276 277 279 284
236 238 241 244 246 247 249 252 255 257 255 255 257 258 259 260 261 262 263 265 268 270 268 264 261 262 266 276 282 278 266 271 276 278 280 280 279 282
246 247 250 251 252 252 253 254 254 255 256 257 259 260 259 259 260 260 262 264 266 267 268 268 270 275 274 273 270 270 271 265 268 273 281 282 284 283
258 258 259 259 259 257 257 257 258 257 257 257 259 260 260 260 261 263 264 264 265 267 272 275 278 273 264 263 269 277 282 282 275 270 264 262 270 275
261 261 262 262 260 259 258 256 257 259 259 260 261 262 262 262 262 262 263 264 267 269 272 275 274 269 267 267 271 276 280 283 284 283 276 271 270 270